sat.trackr.live / text

‹ back to catalog

STARLINK-3900

NORAD 52461 · 2022-049L

PAYLOAD ACTIVE UNKNOWN

§ Identity

Operator
Country
US
Launch date
2022-05-06
Launch site
AFETR
Launch vehicle
Mass (kg)
RCS (m²)

Purposes: comms

External: N2YO · Heavens-Above · Gunter

§ Orbital elements

Epoch: 2026-05-25T01:09:14.855904Z

Period
95.44 min
Inclination
53.2167°
Eccentricity
0.0001117
Mean motion
15.08836007 rev/d
Perigee alt
539.0 km
Apogee alt
540.5 km
Semi-major
6,917.9 km
B*
2.3049e-5
RAAN
66.3348°
Arg perigee
85.5639°
Mean anomaly
274.5481°
Rev number
22,391

§ Raw data

STARLINK-39001 52461U 22049L   26145.04808861  .00000079  00000+0  23049-4 0  99952 52461  53.2167  66.3348 0001117  85.5639 274.5481 15.08836007223916

JSON: /api/v1/satellites/52461 · /tle

For live sub-satellite position, see the globe view (requires WebGL).

§ Visibility from observer

Set your observer location to see the next 7 days of passes ≥ 10°. The values pass through the URL so the page stays shareable.

No JS? Fill the form by hand. The geolocation button needs JavaScript.